Location: Little Maitland River
(43.8022°N, 81.1549°W)
Time: 02:33:14
(UTC+00:00)

Cosmos 2237 - Pass Details

Date: 09 December 2025
Orbit: 848 x 854 km, 70.8° (Epoch: 12 January)

Event Time Altitude Azimuth Distance (km) Brightness Sun altitude
Exits shadow 10:10:44 45° 358° (N) 1,154 4.8 -27.3°
Maximum altitude 10:12:26 67° 62° (ENE) 923 4.4 -27.0°
Drops below altitude 10° 10:18:05 10° 145° (SE) 2,469 7.1 -26.0°
Sets 10:20:32 0° 148° (SSE) 3,400 7.9 -25.5°
